Station Historical Data
Daily Summary for February 1, 2017 Units:  Metric    English   Both
Next Day »
Daily Weekly Monthly Yearly Custom
  High: Low: Average:
Temperature: 12.7 °C 5.7 °C 9.1 °C
Dew Point: 4.4 °C -1.2 °C 1.2 °C
Humidity: 70% 43% 58%
Wind Speed: 32.2km/h 0km/h 5.5km/h
Wind Gust: 40.2km/h - -
Wind- - SE
Pressure: 1019.2 hPa 1014.8 hPa -
Precipitation: 0 mm    
Historical Graphs
 
 
Tabular Data for February 1, 2017
Time Temperature Dew Point Pressure Wind Wind Speed Wind Gust Humidity Rainfall Rate (Hourly) solar Conditions
00:04 7.4 °C 0.4 °C 1019.2 hPa Calm   24.1 km/h 61% 0 mm 0.00 W/m2
00:09 7.4 °C 0.4 °C 1019.2 hPa ESE 17.7 km/h 24.1 km/h 61% 0 mm 0.00 W/m2
00:14 7.4 °C 0.4 °C 1019.2 hPa ESE 11.3 km/h 17.7 km/h 61% 0 mm 0.00 W/m2
00:19 7.4 °C 0.1 °C 1018.8 hPa ESE 9.7 km/h 17.7 km/h 60% 0 mm 0.00 W/m2
00:24 7.4 °C 0.1 °C 1018.8 hPa East 17.7 km/h 22.5 km/h 60% 0 mm 0.00 W/m2
00:29 7.4 °C -0.3 °C 1018.8 hPa Calm   19.3 km/h 58% 0 mm 0.00 W/m2
00:34 7.4 °C -0.1 °C 1018.8 hPa ESE 17.7 km/h 25.7 km/h 59% 0 mm 0.00 W/m2
00:39 7.4 °C -0.3 °C 1018.8 hPa ESE 11.3 km/h 17.7 km/h 58% 0 mm 0.00 W/m2
00:44 7.4 °C -0.6 °C 1018.8 hPa SE 19.3 km/h 20.9 km/h 57% 0 mm 0.00 W/m2
00:49 7.3 °C -0.4 °C 1018.8 hPa ESE 11.3 km/h 14.5 km/h 58% 0 mm 0.00 W/m2
00:54 7.3 °C -0.2 °C 1018.8 hPa Calm   20.9 km/h 59% 0 mm 0.00 W/m2
00:59 7.2 °C -0.5 °C 1018.8 hPa ESE 12.9 km/h 17.7 km/h 58% 0 mm 0.00 W/m2
01:04 7.2 °C -0.1 °C 1018.8 hPa Calm   14.5 km/h 60% 0 mm 0.00 W/m2
01:09 7.1 °C -0.3 °C 1018.8 hPa ESE 6.4 km/h 19.3 km/h 59% 0 mm 0.00 W/m2
01:14 7.1 °C -0.4 °C 1018.8 hPa ESE 9.7 km/h 14.5 km/h 59% 0 mm 0.00 W/m2
01:19 7 °C -0.4 °C 1018.8 hPa ESE 11.3 km/h 17.7 km/h 59% 0 mm 0.00 W/m2
01:24 6.9 °C -0.5 °C 1018.8 hPa Calm   17.7 km/h 59% 0 mm 0.00 W/m2
01:29 6.9 °C -0.3 °C 1018.8 hPa ESE 1.6 km/h 20.9 km/h 60% 0 mm 0.00 W/m2
01:34 6.9 °C -0.3 °C 1018.5 hPa ESE 8 km/h 20.9 km/h 60% 0 mm 0.00 W/m2
01:39 6.8 °C -0.4 °C 1018.8 hPa ESE 8 km/h 17.7 km/h 60% 0 mm 0.00 W/m2
01:45 6.8 °C -0.2 °C 1018.5 hPa Calm   12.9 km/h 61% 0 mm 0.00 W/m2
01:50 6.8 °C -0.4 °C 1018.5 hPa ESE 1.6 km/h 22.5 km/h 60% 0 mm 0.00 W/m2
01:55 6.8 °C -0.7 °C 1018.5 hPa Calm   20.9 km/h 59% 0 mm 0.00 W/m2
02:00 6.7 °C -0.5 °C 1018.5 hPa ESE 8 km/h 22.5 km/h 60% 0 mm 0.00 W/m2
02:05 6.7 °C -0.3 °C 1018.5 hPa ESE 6.4 km/h 22.5 km/h 61% 0 mm 0.00 W/m2
02:10 6.7 °C -0.3 °C 1018.5 hPa ESE 12.9 km/h 20.9 km/h 61% 0 mm 0.00 W/m2
02:15 6.7 °C -0.5 °C 1018.5 hPa SE 17.7 km/h 20.9 km/h 60% 0 mm 0.00 W/m2
02:20 6.7 °C -0.3 °C 1018.2 hPa East 19.3 km/h 20.9 km/h 61% 0 mm 0.00 W/m2
02:25 6.7 °C -0.5 °C 1018.5 hPa ESE 8 km/h 24.1 km/h 60% 0 mm 0.00 W/m2
02:30 6.7 °C -0.3 °C 1018.5 hPa ESE 11.3 km/h 19.3 km/h 61% 0 mm 0.00 W/m2
02:35 6.7 °C -0.7 °C 1018.2 hPa ESE 1.6 km/h 20.9 km/h 59% 0 mm 0.00 W/m2
02:40 6.7 °C -0.7 °C 1018.2 hPa ESE 8 km/h 25.7 km/h 59% 0 mm 0.00 W/m2
02:45 6.7 °C -0.3 °C 1018.2 hPa ESE 9.7 km/h 22.5 km/h 61% 0 mm 0.00 W/m2
02:50 6.7 °C -0.5 °C 1018.2 hPa ESE 19.3 km/h 22.5 km/h 60% 0 mm 0.00 W/m2
02:55 6.7 °C -0.9 °C 1017.8 hPa SSE 12.9 km/h 22.5 km/h 58% 0 mm 0.00 W/m2
03:00 6.8 °C -0.4 °C 1018.2 hPa ESE 6.4 km/h 20.9 km/h 60% 0 mm 0.00 W/m2
03:05 6.8 °C -0.4 °C 1018.2 hPa ESE 8 km/h 22.5 km/h 60% 0 mm 0.00 W/m2
03:10 6.8 °C -0.6 °C 1018.2 hPa East 20.9 km/h 30.6 km/h 59% 0 mm 0.00 W/m2
03:15 6.8 °C -0.4 °C 1018.2 hPa SE 1.6 km/h 25.7 km/h 60% 0 mm 0.00 W/m2
03:20 6.9 °C -0.3 °C 1018.2 hPa East 6.4 km/h 29 km/h 60% 0 mm 0.00 W/m2
03:25 6.9 °C -0.6 °C 1018.2 hPa SE 8 km/h 22.5 km/h 59% 0 mm 0.00 W/m2
03:30 6.9 °C -0.6 °C 1018.2 hPa ESE 3.2 km/h 19.3 km/h 59% 0 mm 0.00 W/m2
03:35 6.9 °C -0.3 °C 1017.8 hPa East 6.4 km/h 22.5 km/h 60% 0 mm 0.00 W/m2
03:40 6.9 °C -0.3 °C 1017.8 hPa ESE 11.3 km/h 29 km/h 60% 0 mm 0.00 W/m2
03:46 6.9 °C -0.3 °C 1017.8 hPa ESE 9.7 km/h 27.4 km/h 60% 0 mm 0.00 W/m2
03:51 6.9 °C -0.5 °C 1017.8 hPa ESE 9.7 km/h 24.1 km/h 59% 0 mm 0.00 W/m2
03:56 6.9 °C -0.7 °C 1017.8 hPa ESE 3.2 km/h 25.7 km/h 58% 0 mm 0.00 W/m2
04:01 7 °C -0.4 °C 1017.5 hPa ESE 17.7 km/h 29 km/h 59% 0 mm 0.00 W/m2
04:06 7 °C -0.4 °C 1017.5 hPa ESE 12.9 km/h 24.1 km/h 59% 0 mm 0.00 W/m2
04:11 7.1 °C -0.4 °C 1017.5 hPa East 14.5 km/h 24.1 km/h 59% 0 mm 0.00 W/m2
04:16 7.1 °C -0.6 °C 1017.5 hPa ESE 1.6 km/h 29 km/h 58% 0 mm 0.00 W/m2
04:21 7.1 °C -0.4 °C 1017.5 hPa ESE 12.9 km/h 29 km/h 59% 0 mm 0.00 W/m2
04:26 7.1 °C -0.6 °C 1017.5 hPa ESE 9.7 km/h 19.3 km/h 58% 0 mm 0.00 W/m2
04:31 7.1 °C -0.9 °C 1017.5 hPa East 1.6 km/h 24.1 km/h 57% 0 mm 0.00 W/m2
04:36 7.1 °C -0.4 °C 1017.5 hPa ESE 17.7 km/h 22.5 km/h 59% 0 mm 0.00 W/m2
04:41 7 °C -0.4 °C 1017.5 hPa ESE 9.7 km/h 20.9 km/h 59% 0 mm 0.00 W/m2
04:46 6.9 °C -0.7 °C 1017.5 hPa East 12.9 km/h 22.5 km/h 58% 0 mm 0.00 W/m2
04:51 6.9 °C -0.5 °C 1017.5 hPa ESE 3.2 km/h 3.2 km/h 59% 0 mm 0.00 W/m2
04:56 6.9 °C -0.6 °C 1017.2 hPa Calm   19.3 km/h 59% 0 mm 0.00 W/m2
05:01 6.9 °C -1.1 °C 1017.2 hPa Calm   25.7 km/h 57% 0 mm 0.00 W/m2
05:06 6.9 °C -0.6 °C 1017.2 hPa Calm     59% 0 mm 0.00 W/m2
05:11 6.9 °C -0.6 °C 1017.2 hPa Calm   1.6 km/h 59% 0 mm 0.00 W/m2
05:16 6.9 °C -0.6 °C 1017.2 hPa ESE 9.7 km/h 11.3 km/h 59% 0 mm 0.00 W/m2
05:21 6.8 °C -0.8 °C 1017.2 hPa ESE 3.2 km/h 3.2 km/h 58% 0 mm 0.00 W/m2
05:26 6.8 °C -0.4 °C 1017.5 hPa Calm   3.2 km/h 60% 0 mm 0.00 W/m2
05:31 6.8 °C -0.4 °C 1017.5 hPa Calm   3.2 km/h 60% 0 mm 0.00 W/m2
05:36 6.7 °C -1.2 °C 1017.5 hPa Calm     57% 0 mm 0.00 W/m2
05:41 6.6 °C -0.4 °C 1017.8 hPa Calm     61% 0 mm 0.00 W/m2
05:46 6.6 °C -0.9 °C 1017.5 hPa Calm     59% 0 mm 0.00 W/m2
05:51 6.4 °C -0.6 °C 1017.8 hPa Calm     61% 0 mm 0.00 W/m2
05:56 6.4 °C -0.8 °C 1017.8 hPa Calm     60% 0 mm 0.00 W/m2
06:01 6.3 °C -0.9 °C 1017.8 hPa Calm     60% 0 mm 0.00 W/m2
06:06 6.2 °C -0.9 °C 1017.5 hPa Calm     60% 0 mm 0.00 W/m2
06:12 6.2 °C -0.9 °C 1017.8 hPa Calm     60% 0 mm 0.00 W/m2
06:17 6.2 °C -1.2 °C 1017.8 hPa Calm     59% 0 mm 0.00 W/m2
06:22 6.2 °C -1 °C 1017.5 hPa Calm     60% 0 mm 0.00 W/m2
06:27 6.2 °C -0.8 °C 1017.8 hPa Calm     61% 0 mm 0.00 W/m2
06:32 6.1 °C -0.6 °C 1017.5 hPa Calm     62% 0 mm 0.00 W/m2
06:37 6.1 °C -0.9 °C 1017.5 hPa Calm   1.6 km/h 61% 0 mm 0.00 W/m2
06:42 6.1 °C -0.7 °C 1017.5 hPa Calm   1.6 km/h 62% 0 mm 0.00 W/m2
06:47 6 °C -0.7 °C 1017.8 hPa Calm     62% 0 mm 0.00 W/m2
06:52 6 °C -0.5 °C 1017.8 hPa ESE 3.2 km/h 3.2 km/h 63% 0 mm 0.00 W/m2
06:57 5.9 °C -0.8 °C 1017.8 hPa Calm   1.6 km/h 62% 0 mm 0.00 W/m2
07:02 5.9 °C -0.8 °C 1017.8 hPa ESE 1.6 km/h 1.6 km/h 62% 0 mm 0.00 W/m2
07:07 5.9 °C -0.8 °C 1017.8 hPa Calm     62% 0 mm 0.00 W/m2
07:12 5.9 °C -0.6 °C 1017.8 hPa Calm     63% 0 mm 5.00 W/m2
07:17 5.8 °C -1.1 °C 1017.8 hPa East 1.6 km/h 1.6 km/h 61% 0 mm 9.00 W/m2
07:22 5.8 °C -0.7 °C 1017.8 hPa Calm   1.6 km/h 63% 0 mm 14.00 W/m2
07:27 5.8 °C -0.7 °C 1017.8 hPa Calm   3.2 km/h 63% 0 mm 18.00 W/m2
07:32 5.8 °C -0.5 °C 1017.8 hPa Calm   1.6 km/h 64% 0 mm 21.00 W/m2
07:37 5.7 °C -0.6 °C 1017.8 hPa Calm   3.2 km/h 64% 0 mm 25.00 W/m2
07:42 5.7 °C -0.3 °C 1017.8 hPa Calm     65% 0 mm 32.00 W/m2
07:47 5.7 °C -0.6 °C 1017.8 hPa Calm     64% 0 mm 32.00 W/m2
07:52 5.7 °C -0.3 °C 1017.8 hPa East 1.6 km/h 3.2 km/h 65% 0 mm 35.00 W/m2
07:57 5.8 °C -0.3 °C 1017.8 hPa Calm     65% 0 mm 46.00 W/m2
08:02 5.8 °C -0.3 °C 1018.2 hPa Calm   3.2 km/h 65% 0 mm 54.00 W/m2
08:07 5.8 °C -0.2 °C 1018.2 hPa Calm     65% 0 mm 62.00 W/m2
08:12 5.9 °C -0.1 °C 1018.2 hPa Calm   1.6 km/h 65% 0 mm 67.00 W/m2
08:17 6 °C -0.1 °C 1018.2 hPa Calm     65% 0 mm 70.00 W/m2
08:22 6.1 °C 0.2 °C 1018.2 hPa Calm   3.2 km/h 66% 0 mm 76.00 W/m2
08:27 6.2 °C 0.3 °C 1018.2 hPa Calm   3.2 km/h 66% 0 mm 104.00 W/m2
08:32 6.3 °C 0.4 °C 1018.2 hPa East 3.2 km/h 8 km/h 66% 0 mm 98.00 W/m2
08:37 6.3 °C 0.9 °C 1018.2 hPa East 6.4 km/h 6.4 km/h 68% 0 mm 93.00 W/m2
08:42 6.4 °C 0.7 °C 1018.5 hPa East 3.2 km/h 3.2 km/h 67% 0 mm 116.00 W/m2
08:48 6.4 °C 0.6 °C 1018.5 hPa Calm   3.2 km/h 66% 0 mm 107.00 W/m2
08:53 6.5 °C 0.6 °C 1018.8 hPa Calm   3.2 km/h 66% 0 mm 116.00 W/m2
08:58 6.7 °C 0.8 °C 1018.8 hPa ESE 1.6 km/h 6.4 km/h 66% 0 mm 132.00 W/m2
09:03 6.8 °C 0.7 °C 1018.5 hPa ESE 6.4 km/h 6.4 km/h 65% 0 mm 174.00 W/m2
09:08 6.9 °C 1.2 °C 1018.8 hPa Calm   1.6 km/h 67% 0 mm 183.00 W/m2
09:13 7 °C 1.3 °C 1018.8 hPa Calm   6.4 km/h 67% 0 mm 165.00 W/m2
09:18 7.2 °C 1.7 °C 1018.8 hPa ESE 1.6 km/h 1.6 km/h 68% 0 mm 171.00 W/m2
09:23 7.3 °C 2.2 °C 1018.8 hPa Calm   1.6 km/h 70% 0 mm 200.00 W/m2
09:28 7.6 °C 2.1 °C 1018.8 hPa Calm   3.2 km/h 68% 0 mm 251.00 W/m2
09:33 7.7 °C 1.7 °C 1018.8 hPa Calm   3.2 km/h 66% 0 mm 186.00 W/m2
09:38 7.8 °C 1.8 °C 1018.8 hPa Calm   6.4 km/h 66% 0 mm 181.00 W/m2
09:43 7.9 °C 1.3 °C 1018.5 hPa SE 1.6 km/h 9.7 km/h 63% 0 mm 195.00 W/m2
09:48 8.1 °C 1.5 °C 1018.5 hPa Calm   11.3 km/h 63% 0 mm 195.00 W/m2
09:53 8.3 °C 1.9 °C 1018.5 hPa ESE 1.6 km/h 9.7 km/h 64% 0 mm 209.00 W/m2
09:58 8.6 °C 1.4 °C 1018.2 hPa SE 12.9 km/h 24.1 km/h 61% 0 mm 255.00 W/m2
10:03 8.7 °C 1.4 °C 1018.2 hPa Calm   22.5 km/h 60% 0 mm 272.00 W/m2
10:08 8.9 °C 1.4 °C 1018.5 hPa Calm   20.9 km/h 59% 0 mm 311.00 W/m2
10:13 9.1 °C 1.3 °C 1018.5 hPa SE 20.9 km/h 25.7 km/h 58% 0 mm 383.00 W/m2
10:18 9.3 °C 0.2 °C 1018.5 hPa SSE 1.6 km/h 22.5 km/h 53% 0 mm 237.00 W/m2
10:23 9.6 °C 0.7 °C 1018.5 hPa ESE 9.7 km/h 19.3 km/h 54% 0 mm 334.00 W/m2
10:28 9.8 °C 0.9 °C 1018.5 hPa Calm   17.7 km/h 54% 0 mm 274.00 W/m2
10:33 10 °C 0.9 °C 1018.5 hPa SSE 1.6 km/h 17.7 km/h 53% 0 mm 272.00 W/m2
10:38 10.2 °C 1.3 °C 1018.5 hPa SE 17.7 km/h 17.7 km/h 54% 0 mm 267.00 W/m2
10:43 10.3 °C 1.4 °C 1018.5 hPa SSE 1.6 km/h 16.1 km/h 54% 0 mm 237.00 W/m2
10:48 10.4 °C 0.7 °C 1018.5 hPa SSE 6.4 km/h 16.1 km/h 51% 0 mm 306.00 W/m2
10:53 10.6 °C 0.9 °C 1018.5 hPa SSE 1.6 km/h 9.7 km/h 51% 0 mm 267.00 W/m2
10:58 10.8 °C 0.8 °C 1018.5 hPa SSE 1.6 km/h 14.5 km/h 50% 0 mm 236.00 W/m2
11:03 11 °C 1.3 °C 1018.5 hPa Calm   17.7 km/h 51% 0 mm 216.00 W/m2
11:08 11.2 °C 0.3 °C 1018.5 hPa Calm   14.5 km/h 47% 0 mm 160.00 W/m2
11:13 11.3 °C 1.5 °C 1018.5 hPa Calm   14.5 km/h 51% 0 mm 148.00 W/m2
11:18 11.3 °C 1.6 °C 1018.5 hPa South 1.6 km/h 16.1 km/h 51% 0 mm 197.00 W/m2
11:23 11.4 °C 0.2 °C 1018.5 hPa Calm   16.1 km/h 46% 0 mm 302.00 W/m2
11:28 11.4 °C 0.6 °C 1018.5 hPa South 6.4 km/h 20.9 km/h 47% 0 mm 313.00 W/m2
11:34 11.6 °C 0.7 °C 1018.5 hPa South 6.4 km/h 19.3 km/h 47% 0 mm 244.00 W/m2
11:39 11.7 °C 0.4 °C 1018.5 hPa SSE 9.7 km/h 14.5 km/h 46% 0 mm 216.00 W/m2
11:44 11.8 °C 0.8 °C 1018.5 hPa South 1.6 km/h 20.9 km/h 47% 0 mm 221.00 W/m2
11:49 11.9 °C 0.3 °C 1018.5 hPa South 12.9 km/h 16.1 km/h 45% 0 mm 220.00 W/m2
11:54 12 °C 0.4 °C 1018.2 hPa South 16.1 km/h 17.7 km/h 45% 0 mm 292.00 W/m2
11:59 12.1 °C 0.2 °C 1017.8 hPa Calm   19.3 km/h 44% 0 mm 262.00 W/m2
12:04 12.2 °C 0.6 °C 1017.8 hPa SSE 11.3 km/h 12.9 km/h 45% 0 mm 227.00 W/m2
12:09 12.3 °C 1 °C 1017.8 hPa South 11.3 km/h 16.1 km/h 46% 0 mm 223.00 W/m2
12:14 12.3 °C 0.7 °C 1017.5 hPa SSE 17.7 km/h 17.7 km/h 45% 0 mm 220.00 W/m2
12:19 12.3 °C 0.4 °C 1017.5 hPa SSE 9.7 km/h 16.1 km/h 44% 0 mm 288.00 W/m2
12:24 12.3 °C 1.7 °C 1017.2 hPa SE 16.1 km/h 20.9 km/h 48% 0 mm 454.00 W/m2
12:29 12.4 °C 1.7 °C 1016.8 hPa Calm   20.9 km/h 48% 0 mm 290.00 W/m2
12:34 12.5 °C 0.9 °C 1016.8 hPa SSE 16.1 km/h 22.5 km/h 45% 0 mm 271.00 W/m2
12:39 12.6 °C 1.6 °C 1016.8 hPa Calm   14.5 km/h 47% 0 mm 200.00 W/m2
12:44 12.6 °C 1.6 °C 1016.8 hPa SE 12.9 km/h 14.5 km/h 47% 0 mm 185.00 W/m2
12:49 12.7 °C 1.7 °C 1016.8 hPa SSE 17.7 km/h 20.9 km/h 47% 0 mm 239.00 W/m2
12:54 12.7 °C 1.7 °C 1016.8 hPa Calm   14.5 km/h 47% 0 mm 251.00 W/m2
12:59 12.7 °C 1.7 °C 1016.8 hPa Calm   1.6 km/h 47% 0 mm 171.00 W/m2
13:04 12.7 °C 2.3 °C 1016.8 hPa Calm   3.2 km/h 49% 0 mm 134.00 W/m2
13:09 12.7 °C 2.3 °C 1016.8 hPa Calm   11.3 km/h 49% 0 mm 142.00 W/m2
13:14 12.7 °C 2.6 °C 1016.8 hPa SSE 1.6 km/h 16.1 km/h 50% 0 mm 130.00 W/m2
13:19 12.7 °C 2.8 °C 1016.8 hPa Calm   11.3 km/h 51% 0 mm 121.00 W/m2
13:24 12.7 °C 3.3 °C 1016.8 hPa Calm   1.6 km/h 53% 0 mm 113.00 W/m2
13:29 12.6 °C 3.8 °C 1016.8 hPa Calm     55% 0 mm 98.00 W/m2
13:35 12.6 °C 4 °C 1016.8 hPa Calm     56% 0 mm 95.00 W/m2
13:59 12 °C 3.2 °C 1016.8 hPa Calm     55% 0 mm 149.00 W/m2
14:04 11.9 °C 2.6 °C 1016.8 hPa Calm     53% 0 mm 276.00 W/m2
14:09 11.9 °C 4.4 °C 1016.8 hPa Calm     60% 0 mm 220.00 W/m2
14:14 11.8 °C 2.8 °C 1016.8 hPa Calm     54% 0 mm 227.00 W/m2
14:19 11.9 °C 2.3 °C 1016.8 hPa WSW 3.2 km/h 3.2 km/h 52% 0 mm 204.00 W/m2
14:24 11.9 °C 2.3 °C 1016.8 hPa Calm   3.2 km/h 52% 0 mm 174.00 W/m2
14:29 11.9 °C 2.6 °C 1016.8 hPa Calm     53% 0 mm 127.00 W/m2
14:34 11.9 °C 2.9 °C 1016.8 hPa Calm     54% 0 mm 120.00 W/m2
14:39 11.9 °C 3.9 °C 1016.5 hPa Calm     58% 0 mm 107.00 W/m2
14:44 11.8 °C 3.6 °C 1016.5 hPa Calm     57% 0 mm 114.00 W/m2
14:49 11.8 °C 4.3 °C 1016.5 hPa Calm     60% 0 mm 81.00 W/m2
14:54 11.8 °C 4.1 °C 1016.5 hPa Calm     59% 0 mm 91.00 W/m2
14:59 11.7 °C 3.9 °C 1016.5 hPa Calm     59% 0 mm 97.00 W/m2
15:04 11.6 °C 3.8 °C 1016.8 hPa Calm     59% 0 mm 69.00 W/m2
15:09 11.4 °C 3.7 °C 1016.8 hPa South 6.4 km/h 8 km/h 59% 0 mm 88.00 W/m2
15:14 11.4 °C 4.2 °C 1016.5 hPa Calm   3.2 km/h 61% 0 mm 111.00 W/m2
15:19 11.3 °C 3.4 °C 1016.5 hPa South 3.2 km/h 16.1 km/h 58% 0 mm 74.00 W/m2
15:24 11.3 °C 3.3 °C 1016.5 hPa Calm   11.3 km/h 58% 0 mm 111.00 W/m2
15:29 11.3 °C 3.3 °C 1016.5 hPa Calm   16.1 km/h 58% 0 mm 81.00 W/m2
15:34 11.2 °C 3.8 °C 1016.5 hPa SSE 1.6 km/h 1.6 km/h 60% 0 mm 100.00 W/m2
15:40 11.2 °C 3.8 °C 1016.5 hPa SSE 8 km/h 25.7 km/h 60% 0 mm 120.00 W/m2
15:45 11.2 °C 3.5 °C 1016.1 hPa ESE 20.9 km/h 22.5 km/h 59% 0 mm 111.00 W/m2
15:50 11.2 °C 3.3 °C 1015.8 hPa SE 16.1 km/h 19.3 km/h 58% 0 mm 86.00 W/m2
15:55 11.3 °C 3.1 °C 1015.8 hPa SE 14.5 km/h 20.9 km/h 57% 0 mm 74.00 W/m2
16:00 11.3 °C 3.1 °C 1015.8 hPa SE 1.6 km/h 19.3 km/h 57% 0 mm 39.00 W/m2
16:05 11.3 °C 3.6 °C 1015.8 hPa Calm   22.5 km/h 59% 0 mm 37.00 W/m2
16:10 11.2 °C 3.5 °C 1015.8 hPa Calm   19.3 km/h 59% 0 mm 33.00 W/m2
16:15 11.2 °C 3.3 °C 1015.8 hPa SE 1.6 km/h 20.9 km/h 58% 0 mm 40.00 W/m2
16:20 11.2 °C 3.2 °C 1015.8 hPa Calm   12.9 km/h 58% 0 mm 51.00 W/m2
16:25 11.1 °C 3.7 °C 1015.5 hPa Calm   20.9 km/h 60% 0 mm 33.00 W/m2
16:30 11 °C 3.6 °C 1015.1 hPa SE 11.3 km/h 22.5 km/h 60% 0 mm 26.00 W/m2
16:35 10.9 °C 3.2 °C 1014.8 hPa ESE 1.6 km/h 24.1 km/h 59% 0 mm 26.00 W/m2
16:40 10.9 °C 3.7 °C 1015.1 hPa Calm   25.7 km/h 61% 0 mm 26.00 W/m2
16:45 10.8 °C 3.4 °C 1015.1 hPa Calm   22.5 km/h 60% 0 mm 26.00 W/m2
16:50 10.8 °C 3.4 °C 1015.5 hPa Calm   17.7 km/h 60% 0 mm 25.00 W/m2
16:55 10.8 °C 3.6 °C 1015.8 hPa Calm   1.6 km/h 61% 0 mm 18.00 W/m2
17:00 10.8 °C 3.3 °C 1015.8 hPa Calm   1.6 km/h 60% 0 mm 12.00 W/m2
17:05 10.7 °C 3.5 °C 1015.8 hPa ESE 1.6 km/h 12.9 km/h 61% 0 mm 11.00 W/m2
17:10 10.7 °C 3.9 °C 1016.1 hPa Calm   1.6 km/h 63% 0 mm 7.00 W/m2
17:15 10.6 °C 3.6 °C 1016.1 hPa Calm   1.6 km/h 62% 0 mm 0.00 W/m2
17:20 10.6 °C 3.8 °C 1016.1 hPa Calm   1.6 km/h 63% 0 mm 0.00 W/m2
17:25 10.4 °C 3.9 °C 1016.1 hPa Calm   1.6 km/h 64% 0 mm 0.00 W/m2
17:30 10.3 °C 3.8 °C 1016.5 hPa Calm   14.5 km/h 64% 0 mm 0.00 W/m2
17:36 10.2 °C 3.9 °C 1016.5 hPa Calm   16.1 km/h 65% 0 mm 0.00 W/m2
17:41 10.1 °C 3.8 °C 1016.5 hPa Calm   16.1 km/h 65% 0 mm 0.00 W/m2
17:46 10 °C 3.9 °C 1016.8 hPa Calm   17.7 km/h 66% 0 mm 0.00 W/m2
17:51 9.9 °C 3.8 °C 1016.8 hPa Calm   14.5 km/h 66% 0 mm 0.00 W/m2
17:56 9.8 °C 3.5 °C 1016.5 hPa Calm   3.2 km/h 65% 0 mm 0.00 W/m2
18:01 9.7 °C 3.7 °C 1016.5 hPa Calm   3.2 km/h 66% 0 mm 0.00 W/m2
18:06 9.7 °C 3.6 °C 1016.5 hPa Calm   1.6 km/h 66% 0 mm 0.00 W/m2
18:11 9.6 °C 3.8 °C 1016.1 hPa Calm   14.5 km/h 67% 0 mm 0.00 W/m2
18:16 9.6 °C 3.7 °C 1016.5 hPa Calm   1.6 km/h 67% 0 mm 0.00 W/m2
18:21 9.6 °C 3.9 °C 1016.5 hPa SSE 1.6 km/h 14.5 km/h 68% 0 mm 0.00 W/m2
18:26 9.5 °C 3.7 °C 1016.1 hPa SSE 3.2 km/h 16.1 km/h 67% 0 mm 0.00 W/m2
18:31 9.5 °C 3.4 °C 1016.1 hPa SSE 14.5 km/h 16.1 km/h 66% 0 mm 0.00 W/m2
18:36 9.5 °C 3.3 °C 1015.8 hPa SSE 9.7 km/h 17.7 km/h 65% 0 mm 0.00 W/m2
18:41 9.6 °C 2.9 °C 1015.5 hPa SSE 14.5 km/h 20.9 km/h 63% 0 mm 0.00 W/m2
18:46 9.6 °C 2.4 °C 1015.5 hPa SE 9.7 km/h 27.4 km/h 61% 0 mm 0.00 W/m2
18:51 9.7 °C 2.6 °C 1015.5 hPa SSE 16.1 km/h 22.5 km/h 61% 0 mm 0.00 W/m2
18:56 9.8 °C 2.2 °C 1015.8 hPa SSE 16.1 km/h 17.7 km/h 59% 0 mm 0.00 W/m2
19:01 9.9 °C 2.3 °C 1015.8 hPa SSE 12.9 km/h 12.9 km/h 59% 0 mm 0.00 W/m2
19:06 10 °C 2.1 °C 1015.8 hPa SSE 12.9 km/h 22.5 km/h 58% 0 mm 0.00 W/m2
19:11 10.1 °C 1.9 °C 1016.1 hPa Calm   1.6 km/h 57% 0 mm 0.00 W/m2
19:16 10.2 °C 2.1 °C 1016.1 hPa SSE 14.5 km/h 16.1 km/h 57% 0 mm 0.00 W/m2
19:21 10.2 °C 2.6 °C 1016.1 hPa SE 8 km/h 12.9 km/h 59% 0 mm 0.00 W/m2
19:26 10.2 °C 1.8 °C 1016.1 hPa South 11.3 km/h 14.5 km/h 56% 0 mm 0.00 W/m2
19:31 10.2 °C 1.3 °C 1016.1 hPa South 19.3 km/h 22.5 km/h 54% 0 mm 0.00 W/m2
19:36 10.3 °C 1.2 °C 1016.1 hPa SSE 17.7 km/h 24.1 km/h 53% 0 mm 0.00 W/m2
19:41 10.4 °C 0.9 °C 1016.5 hPa SE 19.3 km/h 20.9 km/h 52% 0 mm 0.00 W/m2
19:46 10.4 °C 0.4 °C 1016.5 hPa SE 12.9 km/h 22.5 km/h 50% 0 mm 0.00 W/m2
19:51 10.6 °C 0.9 °C 1016.1 hPa SSE 9.7 km/h 17.7 km/h 51% 0 mm 0.00 W/m2
19:56 10.7 °C 0.9 °C 1016.1 hPa SE 9.7 km/h 14.5 km/h 51% 0 mm 0.00 W/m2
20:01 10.7 °C 0.4 °C 1016.5 hPa SE 8 km/h 19.3 km/h 49% 0 mm 0.00 W/m2
20:07 10.7 °C 0.7 °C 1016.5 hPa SSE 20.9 km/h 20.9 km/h 50% 0 mm 0.00 W/m2
20:12 10.8 °C 0.5 °C 1016.1 hPa SSE 12.9 km/h 19.3 km/h 49% 0 mm 0.00 W/m2
20:17 10.8 °C 0.2 °C 1016.5 hPa South 11.3 km/h 14.5 km/h 48% 0 mm 0.00 W/m2
20:22 10.8 °C 0 °C 1016.1 hPa SE 6.4 km/h 19.3 km/h 47% 0 mm 0.00 W/m2
20:27 10.8 °C 0 °C 1015.8 hPa SSE 19.3 km/h 29 km/h 47% 0 mm 0.00 W/m2
20:32 10.9 °C -0.6 °C 1016.1 hPa SSE 12.9 km/h 19.3 km/h 45% 0 mm 0.00 W/m2
20:37 10.9 °C -0.8 °C 1016.5 hPa SE 19.3 km/h 30.6 km/h 44% 0 mm 0.00 W/m2
20:42 11.1 °C -0.4 °C 1016.1 hPa SSE 22.5 km/h 24.1 km/h 45% 0 mm 0.00 W/m2
20:47 11.2 °C -0.6 °C 1015.5 hPa SSE 14.5 km/h 30.6 km/h 44% 0 mm 0.00 W/m2
20:52 11.2 °C -0.3 °C 1015.8 hPa South 17.7 km/h 30.6 km/h 45% 0 mm 0.00 W/m2
20:57 11.2 °C -0.9 °C 1016.1 hPa SE 32.2 km/h 40.2 km/h 43% 0 mm 0.00 W/m2
21:02 11.3 °C 0.1 °C 1016.5 hPa SSE 19.3 km/h 37 km/h 46% 0 mm 0.00 W/m2
21:07 11.4 °C 1.9 °C 1016.1 hPa SE 8 km/h 22.5 km/h 52% 0 mm 0.00 W/m2
21:12 11.3 °C 2.4 °C 1016.1 hPa SSE 3.2 km/h 3.2 km/h 54% 0 mm 0.00 W/m2
21:17 11.2 °C 2.8 °C 1016.1 hPa Calm   6.4 km/h 56% 0 mm 0.00 W/m2
21:22 11.1 °C 3.3 °C 1016.1 hPa Calm   1.6 km/h 59% 0 mm 0.00 W/m2
21:27 10.9 °C 3 °C 1016.5 hPa Calm   1.6 km/h 58% 0 mm 0.00 W/m2
21:32 10.8 °C 3.2 °C 1016.1 hPa SSE 8 km/h 12.9 km/h 59% 0 mm 0.00 W/m2
21:37 10.7 °C 3.2 °C 1016.1 hPa Calm     60% 0 mm 0.00 W/m2
21:42 10.6 °C 3.6 °C 1016.5 hPa Calm     62% 0 mm 0.00 W/m2
21:47 10.4 °C 3 °C 1016.5 hPa Calm     60% 0 mm 0.00 W/m2
21:52 10.3 °C 2.9 °C 1016.5 hPa Calm     60% 0 mm 0.00 W/m2
21:57 10.3 °C 2.9 °C 1016.5 hPa Calm     60% 0 mm 0.00 W/m2
22:02 10.2 °C 3 °C 1016.5 hPa Calm     61% 0 mm 0.00 W/m2
22:07 10.1 °C 3.2 °C 1016.5 hPa Calm     62% 0 mm 0.00 W/m2
22:12 9.9 °C 3 °C 1016.1 hPa Calm     62% 0 mm 0.00 W/m2
22:17 9.8 °C 2.9 °C 1016.1 hPa Calm     62% 0 mm 0.00 W/m2
22:22 9.7 °C 2.8 °C 1016.5 hPa Calm     62% 0 mm 0.00 W/m2
22:27 9.7 °C 2.7 °C 1016.5 hPa Calm     62% 0 mm 0.00 W/m2
22:32 9.6 °C 2.7 °C 1016.5 hPa Calm     62% 0 mm 0.00 W/m2
22:37 9.6 °C 3.1 °C 1016.5 hPa Calm     64% 0 mm 0.00 W/m2
22:43 9.4 °C 3.2 °C 1016.1 hPa Calm     65% 0 mm 0.00 W/m2
22:48 9.3 °C 2.8 °C 1015.8 hPa Calm     64% 0 mm 0.00 W/m2
22:53 9.2 °C 2.9 °C 1015.8 hPa Calm   3.2 km/h 65% 0 mm 0.00 W/m2
22:58 9.1 °C 2.8 °C 1015.8 hPa SSE 14.5 km/h 14.5 km/h 65% 0 mm 0.00 W/m2
23:03 9 °C 2.8 °C 1015.8 hPa Calm   3.2 km/h 65% 0 mm 0.00 W/m2
23:08 9 °C 2.3 °C 1015.8 hPa SSE 9.7 km/h 16.1 km/h 63% 0 mm 0.00 W/m2
23:13 9.1 °C 2.2 °C 1016.1 hPa SSE 12.9 km/h 17.7 km/h 62% 0 mm 0.00 W/m2
23:18 9.1 °C 1.6 °C 1016.1 hPa SSE 20.9 km/h 20.9 km/h 59% 0 mm 0.00 W/m2
23:23 9.2 °C 1.2 °C 1016.1 hPa SSE 14.5 km/h 22.5 km/h 57% 0 mm 0.00 W/m2
23:28 9.3 °C 0.5 °C 1016.1 hPa SSE 16.1 km/h 20.9 km/h 54% 0 mm 0.00 W/m2
23:33 9.5 °C 0.4 °C 1016.5 hPa SSE 19.3 km/h 27.4 km/h 53% 0 mm 0.00 W/m2
23:38 9.7 °C 0.9 °C 1016.1 hPa SSE 14.5 km/h 25.7 km/h 54% 0 mm 0.00 W/m2
23:43 9.8 °C 0.7 °C 1015.8 hPa SSE 19.3 km/h 27.4 km/h 53% 0 mm 0.00 W/m2
23:48 9.9 °C 0.3 °C 1016.1 hPa SSW 6.4 km/h 30.6 km/h 51% 0 mm 0.00 W/m2
23:53 10.1 °C -0.2 °C 1016.1 hPa SSE 20.9 km/h 20.9 km/h 49% 0 mm 0.00 W/m2
23:58 10.2 °C 0.2 °C 1015.8 hPa SE 8 km/h 19.3 km/h 50% 0 mm 0.00 W/m2
Foresthill Weather
 WU-history PHP script courtesy of   Juneau County Weather.
powered by Cumulus v1.9.3 (1059)
Ambient Weather VWS v14.00
Top Contact Website Map Copyright © 2007 - 2018 Foresthillweather.com Never base important decisions on this or any weather information obtained from the Internet